This is the latest recevied weather packets stored in our database for station/object DG5TS-10. If no packets are shown the sender has not sent any weather packets the latest 10 day(s).
| Time | Temp. | Humidity | Pressure | Rain* | Wind** | Luminosity | Snow |
|---|---|---|---|---|---|---|---|
| 1777392708 | 37.78° C | 10% | 1024.9 hPa | - | - | - | - |
| 1777391807 | 38.89° C | 9% | 1024.9 hPa | - | - | - | - |
| 1777390907 | 40° C | 9% | 1024.9 hPa | - | - | - | - |
| 1777390007 | 40.56° C | 8% | 1024.9 hPa | - | - | - | - |
| 1777389111 | 43.33° C | 7% | 1025 hPa | - | - | - | - |
| 1777388056 | 47.78° C | 5% | 1025.2 hPa | - | - | - | - |
| 1777387001 | 47.22° C | 5% | 1025.2 hPa | - | - | - | - |
| 1777385946 | 45.56° C | 4% | 1025.3 hPa | - | - | - | - |
| 1777381721 | 41.67° C | 5% | 1025.7 hPa | - | - | - | - |
| 1777380668 | 43.33° C | 15% | 1025.8 hPa | - | - | - | - |
| 1777379613 | 41.11° C | 16% | 1025.9 hPa | - | - | - | - |
| 1777378558 | 38.33° C | 18% | 1025.9 hPa | - | - | - | - |
| 1777376447 | 32.22° C | 22% | 1026.3 hPa | - | - | - | - |
| 1777375392 | 30.56° C | 23% | 1026.3 hPa | - | - | - | - |
| 1777374337 | 28.33° C | 24% | 1026.3 hPa | - | - | - | - |
| 1777373281 | 27.22° C | 25% | 1026.3 hPa | - | - | - | - |
| 1777372227 | 26.11° C | 26% | 1026.4 hPa | - | - | - | - |
| 1777371172 | 26.67° C | 24% | 1026.4 hPa | - | - | - | - |
| 1777370116 | 23.89° C | 28% | 1026.4 hPa | - | - | - | - |
| 1777369061 | 21.67° C | 31% | 1026.4 hPa | - | - | - | - |
| 1777368006 | 20.56° C | 33% | 1026.5 hPa | - | - | - | - |
| 1777366951 | 20.56° C | 33% | 1026.5 hPa | - | - | - | - |
| 1777365896 | 20° C | 33% | 1026.5 hPa | - | - | - | - |
| 1777364841 | 20.56° C | 32% | 1026.5 hPa | - | - | - | - |
| 1777363786 | 19.44° C | 34% | 1026.3 hPa | - | - | - | - |
* Rain since midnight (hover to see other rain measurements)
** Current wind speed in m/s (hover to see current wind gust speed)